Flag for Switzerland Weather past 2 weeks in Altstätten, St. Gallen, Switzerland

Now
37 °F

Passing clouds.


Feels Like: 35 °F
Forecast: 33 / 39 °F
Wind: 3 mph from Southwest

Location: Saint Gallen-Altenrhein

Current Time: Jan 29, 2015 at 12:04:40 AM

Latest Report: Jan 28, 2015 at 11:20 PM


Visibility: N/A

Pressure: 29.65 "Hg

Humidity: 70%

Dew point: 28 °F

Location of AltstättenLocation

Historic Weather in Altstätten — Graph

°F

Altstätten temperature yesterday

Maximum temperature yesterday: 39 °F (at 1:50 PM)
Minimum temperature yesterday: 32 °F (at 5:20 AM)
Average temperature yesterday: 35 °F

Past Weeks' High & Low Weather Summary

 TemperatureHumidityPressure
High48 °F (Jan 14, 7:50 AM)100% (Jan 16, 9:50 AM)30.39 "Hg (Jan 16, 9:50 AM)
Low27 °F (Jan 19, 4:20 AM)52% (Jan 28, 7:20 PM)29.65 "Hg (Jan 16, 3:20 PM)
Average35 °F85%30.01 "Hg
* Reported Jan 13 10:20 PM — Jan 28 10:20 PM, Altstätten, Weather by CustomWeather, © 2014

Note: Actual official high and low records may vary slightly from our data, if they occured in-between our weather recording intervals... More about our weather records

Advertising

Altstätten weather history for previous 24 hours

 ConditionsComfort  
Time TempWeatherWind HumidityBarometerVisibility
10:20 PM
Jan 28
37 °FPassing clouds.5 mph65%29.68 "HgN/A
9:50 PM36 °FPartly cloudy.3 mph75%29.71 "HgN/A
9:20 PM36 °FOvercast.6 mph75%29.71 "HgN/A
8:50 PM36 °FPartly cloudy.6 mph75%29.74 "HgN/A
8:20 PM34 °FOvercast.5 mph81%29.77 "HgN/A
7:50 PM34 °FClear.3 mph81%29.80 "Hg10 mi
7:20 PM39 °FPassing clouds.5 mph52%29.80 "HgN/A
6:50 PM37 °FPassing clouds.5 mph60%29.83 "HgN/A
6:20 PM39 °FPartly cloudy.6 mph56%29.86 "HgN/A
5:50 PM37 °FPassing clouds.5 mph70%29.86 "HgN/A
5:20 PM37 °FPartly cloudy.3 mph70%29.89 "HgN/A
4:50 PM39 °FPartly sunny.2 mph61%29.89 "HgN/A
4:20 PM39 °FBroken clouds.3 mph61%29.92 "HgN/A
3:50 PM37 °FPartly sunny.5 mph75%29.98 "HgN/A
3:20 PM37 °FPartly sunny.5 mph70%29.98 "HgN/A
2:50 PM39 °FPartly sunny.6 mph61%30.01 "HgN/A
2:20 PM39 °FPartly sunny.6 mph56%30.01 "HgN/A
1:50 PM39 °FPassing clouds.7 mph56%30.04 "HgN/A
1:20 PM37 °FPassing clouds.6 mph65%30.04 "HgN/A
12:50 PM37 °FPassing clouds.3 mph70%30.07 "HgN/A
12:20 PM36 °FPassing clouds.6 mph81%30.07 "HgN/A
11:50 AM37 °FPassing clouds.5 mph75%30.09 "HgN/A
11:20 AM36 °FPassing clouds.6 mph81%30.09 "HgN/A
10:50 AM34 °FPassing clouds.3 mph93%30.12 "HgN/A
10:20 AM36 °FPassing clouds.1 mph81%30.12 "HgN/A
9:50 AM34 °FScattered clouds.2 mph100%30.15 "HgN/A
9:20 AM34 °FScattered clouds.2 mph100%30.15 "HgN/A
8:50 AM32 °FBroken clouds.1 mph100%30.15 "Hg5 mi
8:20 AM32 °FSnow flurries. Broken clouds.1 mph100%30.15 "Hg5 mi
7:50 AM32 °FPartly cloudy.1 mph100%30.15 "Hg5 mi
7:20 AM32 °FPassing clouds.5 mph100%30.15 "Hg5 mi
6:50 AM32 °FPassing clouds.5 mph100%30.15 "Hg5 mi
6:20 AM32 °FLight snow. Passing clouds.5 mph100%30.15 "Hg5 mi
5:50 AM32 °FLight snow. Partly cloudy.6 mph100%30.15 "Hg3 mi
5:20 AM32 °FLight snow. Passing clouds.3 mph100%30.15 "Hg1 mi
4:50 AM34 °FLight snow. Passing clouds.2 mph93%30.18 "Hg2 mi
4:20 AM34 °FLight snow. Passing clouds.2 mph93%30.18 "Hg6 mi
3:50 AM34 °FLight snow. Passing clouds.5 mph93%30.18 "Hg4 mi
3:20 AM34 °FLight snow. Overcast.8 mph87%30.21 "HgN/A
2:50 AM36 °FLight snow. Overcast.7 mph81%30.21 "Hg5 mi
2:20 AM34 °FLight snow. Overcast.1 mph93%30.21 "Hg5 mi
1:50 AM34 °FLight snow. Partly cloudy.13 mph93%30.21 "Hg2 mi
1:20 AM36 °FSnow flurries. Passing clouds.9 mph81%30.21 "HgN/A
12:50 AM36 °FPassing clouds.10 mph87%30.21 "HgN/A
12:20 AM36 °FLight snow. Partly cloudy.10 mph87%30.18 "HgN/A
Weather by CustomWeather, © 2014

See weather overviewHow to use our weather pages